sat.trackr.live / text

‹ back to catalog

STARLINK-36789

NORAD 68118 · 2026-044T

PAYLOAD ACTIVE UNKNOWN

§ Identity

Operator
Country
US
Launch date
2026-03-08
Launch site
AFWTR
Launch vehicle
Mass (kg)
RCS (m²)

Purposes: comms

External: N2YO · Heavens-Above · Gunter

§ Orbital elements

Epoch: 2026-09-19T14:42:15.366240Z

Period
93.91 min
Inclination
97.2850°
Eccentricity
0.0001097
Mean motion
15.33445648 rev/d
Perigee alt
464.8 km
Apogee alt
466.3 km
Semi-major
6,843.7 km
B*
4.3655e-4
RAAN
221.6055°
Arg perigee
104.2438°
Mean anomaly
255.8927°
Rev number
3,130

§ Raw data

STARLINK-367891 68118U 26044T   26262.61267785  .00014045  00000+0  43655-3 0  99992 68118  97.2850 221.6055 0001097 104.2438 255.8927 15.33445648 31305

JSON: /api/v1/satellites/68118 · /tle

For live sub-satellite position, see the globe view (requires WebGL).

§ Visibility from observer

Set your observer location to see the next 7 days of passes ≥ 10°. The values pass through the URL so the page stays shareable.

No JS? Fill the form by hand. The geolocation button needs JavaScript.